Regional Weather Roundup
Issued by NWS

Home | Current Version | Previous Version | Graphics & Text | Print | Product List | Glossary On
Versions: 1 2 3 4 5 6 7 8 9 10 11 12 13 14 15 16 17 18 19 20 21 22 23 24 25 26 27 28 29 30 31 32 33 34 35 36 37 38 39 40 41 42 43 44 45 46 47 48 49 50
000
ASUS43 KLMK 020210
RWRKY
KENTUCKY REGIONAL WEATHER ROUNDUP
NATIONAL WEATHER SERVICE LOUISVILLE KY
1000 PM EDT WED APR 01 2015

NOTE "FAIR" INDICATES FEW OR NO CLOUDS BELOW 12,000 FEET
WITH NO SIGNIFICANT WEATHER AND/OR OBSTRUCTIONS TO VISIBILITY.

KYZ001>023-026-027-061>063-070>075-020300-
WESTERN AND SOUTH CENTRAL KENTUCKY

CITY           SKY/WX    TMP DP  RH WIND       PRES   REMARKS
PADUCAH        LGT RAIN  67  41  38 VRB6      29.98R
HENDERSON      CLOUDY    64  34  32 SE7       29.98F
OWENSBORO      CLOUDY    62  37  39 SE7       30.02R
HOPKINSVILLE   CLOUDY    64  39  40 E6        30.00F
BOWLING GREEN  FAIR      55  37  50 CALM      30.05R
GLASGOW        MOCLDY    53  34  47 CALM      30.07R
$$

KYZ024-025-028>034-038-045-046-053-020300-
NORTH CENTRAL KENTUCKY

CITY           SKY/WX    TMP DP  RH WIND       PRES   REMARKS
LOUISVILLE/SDF PTCLDY    61  29  29 SE5       30.07R
LOUISVILLE/LOU PTCLDY    60  29  30 SE5       30.06R
FORT KNOX      MOCLDY    57  29  33 E5        30.05R
$$

KYZ035>037-039>044-047>052-055>060-089>105-020300-
NORTHEAST KENTUCKY

CITY           SKY/WX    TMP DP  RH WIND       PRES   REMARKS
LEXINGTON      MOCLDY    57  27  31 E5        30.09S
COVINGTON      MOCLDY    53  29  39 S6        30.08S
FRANKFORT      PTCLDY    48  31  51 CALM      30.07R
$$

KYZ054-064>069-076>088-106>120-020300-
SOUTHEAST KENTUCKY

CITY           SKY/WX    TMP DP  RH WIND       PRES   REMARKS
JACKSON        PTCLDY    59  15  18 VRB5      30.11R
LONDON         PTCLDY    58  26  29 CALM      30.10R
SOMERSET       MOCLDY    55  23  28 CALM      30.10R
MIDDLESBORO    PTCLDY    54  32  43 CALM      30.12R
MONTICELLO     PTCLDY    46  33  60 CALM      30.11R
$$



USA.gov is the U.S. government's official web portal to all federal, state and local government web resources and services.